Вернуться в каталог

STARLINK-37590

АктивенСвязьVLEO
NORAD 69838·PAYLOAD·🇺🇸 United States

Запущен Jul 5, 2026 с Cape Canaveral Space Force Station

Loading…

Ближайшие Пролёты (ближайшие 24 часа)

TLE

СвежийSource: CelesTrak SupGP

Эпоха: Sep 15, 2026, 04:11 UTC

1 69838C 26154V   26258.17479167  .00078137  00000+0  23083-2 0  2588
2 69838  53.1585 356.3422 0001173  93.9747 295.4638 15.34355283    16

Отслеживайте STARLINK-37590 в реальном времени с AllMySat

Download on the App Store